Starlink 35621

operational
NORAD ID: 66156 Int'l Des: 2025-240 Owner: SPXS Country: US Constellation: starlink
LEOCIRCULAR

Über Starlink 35621

Beschreibung wird geladen...

Live-Position

3D-Globus wird geladen...

Nächste Überflüge

Höhenverlauf

Altitude vs Time

uPlot chart will show altitude changes over time

Zweizeiliger Elementsatz

1 66156C 25240M 25298.74354167 .00625530 00000+0 10186-2 0 2980
2 66156 53.1579 338.8104 0009107 269.0771 329.7633 16.01901263 15
Epoch: 25. Okt. 2025 • Age: 159 hours

Aktueller Status

Höhe 243.3 km
Geschwindigkeit 7.76 km/s
Subsatellitenpunkt 3.61°N, 49.59°E
Startdatum 25. Okt. 2025
Alter 6 days
Typ internet

Technische Details

Klassifizierung Payload
Masse 575.00 kg
Trockenmasse 530.00 kg
Gesamtmasse 575.00 kg
Länge 0.30 m
Durchmesser 4.10 m
Spannweite 29.00 m
Form Box + pan
Hersteller SPXS
Bus-Typ Starlink V2MO
Phasenstatus In Orbit
Besitzer/Staat SPXS/US

Große Konstellationen

Loading constellations...